Showing default

VRSS-1, 38782

Orbit data source: Space-Track

VRSS-1, 38782 is a payload satellite owned by ABAE (VE) in SSO that was launched on Sat, 29 Sep 2012 UTC via a CHANG ZHENG 2D launch vehicle from the Jiuquan Satellite Launch Center, China (JSC). Payload-class satellites include a variety of spacecraft equipped with specific instruments for various scientific and technological missions. These include communications satellites like Starlink; space stations such as the ISS; scientific satellites like the Hubble; Earth observation satellites from companies like Planet Labs, Umbra, and HawkEye 360; GPS; miniature CubeSats for education and research; and military/defense satellites.

Loading next visibility...
Identifier
38782, 2012-052A
Orbit
SSO
Country
Flag of VEVE / VENZ
Related business
Manufacturer
DFH
Mission
Operational Civil Imaging
Bus & Motor
CAST-2000, AOCS
Mass
880 kg wet, ~880 kg dry
Launch date (UTC)
2012-09-29 (14 years ago)
Launch vehicle
CHANG ZHENG 2D
Launch site
Jiuquan Satellite Launch Center, China (JSC)
Object type
Payload
Rocket body
Debris
Shape & HBR
Box + 2 Pan, 2.0 m
Radar Cross Section
4.991 m², Large (>1 m²)

Expand to show TLE details & history
Last TLE update: 7 hours ago

TLE from 7 hours ago
0 VRSS-1
1 38782U 12052A   26095.26543600  .00001900  00000-0  25763-3 0  9992
2 38782  97.6113  75.3612 0019199 112.8233 247.5010 14.79879411728827
Epoch: 2026-04-05T06:22Z
TLE epoch observation values (Epoch: 2026-04-05T06:22:13.670Z)
Latitude
-0.00001°
Longitude
146.23091°
Altitude
637.906 km
Speed
7.536 km/s
True Right ascension
05h 01m 26s
True Declination
0° 00' 00"
Sunlit
Object was in daylight at epoch
Visualization orbit readout
Latitude
Unknown
Longitude
Unknown
Altitude
Unknown
Speed
Unknown
Apparent Right ascension
Unknown
Apparent Declination
Unknown
Sunlit
N/A
Visualization observer readout
Local Sidereal Time
19:30:19
Azimuth
Unknown
Elevation
Unknown
Doppler factor
Unknown
Orbital elements
Apogee altitude
640.182 km
Perigee altitude
613.284 km
Semi-major axis
7,004.87 km
Eccentricity
0.00192
Inclination
97.6113°
RAAN
75.3612°
Arg. of periapsis
112.8233°
True anomaly
247.29793°
Mean anomaly
247.501°
Eccentric anomaly
247.39945°
Mean motion
3.70206 °/min
Orbital period
97.24 mins
BSTAR
0.00025763
Loading maneuver chart data...
Computing Atmospheric mass density...
Loading historical data...
Loading historical data...
Loading historical data...
Loading historical data...
Loading historical data...
Loading historical data...
Loading historical data...
Other satellites on launch #52 in the year 2012 (2012-09-29 UTC)

Documentation

Showing up to 5 results
|